Torna al catalogo

STARLINK-2606

AttivoComunicazioniVLEO
NORAD 48386·PAYLOAD·🇺🇸 United States

Lanciato May 4, 2021 da Cape Canaveral Space Force Station

Loading…

Prossimi Passaggi (prossime 24 ore)

TLE

AggiornatoSource: CelesTrak SupGP

Epoca: Sep 14, 2026, 14:20 UTC

1 48386C 21038AK  26257.59770833  .00025690  00000+0  82672-3 0  2573
2 48386  53.1601 186.4055 0001443  87.7785 316.8160 15.31665200    15

Traccia STARLINK-2606 in tempo reale con AllMySat

Download on the App Store